KB2KRJ Weather Reports


Display with metric or nautical units.
time (UTC)temp
F
wind
direction
speed
MPH
gust
MPH
rain 1hr
in
rain 24hr
in
rain mn
in
humidity
%
barometer
mb
20200329161615 46 147 0.0 6.0 0.00 0.00 0.00 97 1016.2
20200329160102 46 167 2.0 10.0 0.00 0.00 0.00 97 1016.3
20200329154608 45 188 1.0 9.0 0.00 0.00 0.00 97 1016.4
20200329153105 45 178 2.0 7.0 0.00 0.00 0.00 97 1016.5
20200329151543 45 109 1.0 6.0 0.00 0.00 0.00 97 1016.7
20200329150029 45 98 0.0 5.0 0.00 0.00 0.00 97 1016.8
20200329144550 45 190 1.0 9.0 0.00 0.00 0.00 97 1017.2
20200329143020 45 131 0.0 7.0 0.00 0.00 0.00 97 1017.7
20200329141552 44 125 0.0 3.0 0.00 0.00 0.00 97 1018.5
20200329140029 44 132 0.0 4.0 0.00 0.00 0.00 97 1019.1
20200329134515 44 98 0.0 2.0 0.00 0.00 0.00 97 1018.4
20200329133014 44 122 0.0 2.0 0.00 0.00 0.00 97 1018.8
20200329131552 44 123 0.0 3.0 0.00 0.00 0.00 97 1018.6
20200329130018 44 117 0.0 3.0 0.00 0.00 0.00 97 1018.5
20200329124512 44 110 0.0 2.0 0.00 0.00 0.00 97 1018.5
20200329123016 43 105 0.0 3.0 0.00 0.00 0.00 97 1018.3
20200329121510 43 81 0.0 3.0 0.00 0.00 0.00 97 1018.5
20200329120038 43 103 0.0 1.0 0.00 0.00 0.00 97 1018.9
20200329114508 43 95 0.0 3.0 0.00 0.00 0.00 97 1018.5
20200329113011 43 90 0.0 1.0 0.00 0.00 0.00 97 1018.6
20200329111519 42 103 0.0 4.0 0.00 0.00 0.00 97 1018.3
20200329110006 42 70 0.0 1.0 0.00 0.00 0.00 97 1018.5
20200329104504 42 69 0.0 4.0 0.00 0.00 0.00 97 1018.5
20200329103022 42 101 0.0 4.0 0.00 0.00 0.00 97 1017.9
20200329101506 42 25 1.0 9.0 0.00 0.00 0.00 97 1018.0
20200329100003 42 80 0.0 3.0 0.00 0.00 0.00 97 1018.3
20200329094656 42 86 0.0 5.0 0.00 0.00 0.00 97 1018.4
20200329093147 42 36 0.0 4.0 0.00 0.00 0.00 97 1018.3
20200329091703 42 36 1.0 6.0 0.00 0.00 0.00 97 1018.5
20200329090222 42 69 0.0 3.0 0.00 0.00 0.00 97 1018.4
20200329084756 41 60 0.0 7.0 0.00 0.00 0.00 97 1018.3
20200329083101 41 81 0.0 3.0 0.00 0.00 0.00 97 1018.2
20200329081705 41 55 1.0 5.0 0.00 0.00 0.00 97 1018.1
20200329080200 41 99 0.0 3.0 0.00 0.00 0.00 97 1018.6
20200329074635 41 104 0.0 2.0 0.00 0.00 0.00 97 1018.7
20200329073134 41 98 0.0 3.0 0.00 0.00 0.00 97 1018.5
20200329071601 41 123 0.0 2.0 0.00 0.00 0.00 97 1019.2
20200329070116 41 92 0.0 7.0 0.00 0.00 0.00 97 1019.1
20200329064551 40 69 0.0 4.0 0.00 0.00 0.00 97 1019.2
20200329063116 40 23 0.0 1.0 0.00 0.00 0.00 97 1019.3
20200329061559 40 23 0.0 0.0 0.00 0.00 0.00 97 1019.8
20200329060151 40 23 0.0 0.0 0.00 0.00 0.00 97 1019.7
20200329054620 40 23 0.0 0.0 0.00 0.00 0.00 96 1019.6
20200329053125 40 23 0.0 0.0 0.00 0.00 0.00 96 1019.8
20200329051623 40 23 0.0 0.0 0.00 0.00 0.00 96 1019.6
20200329050128 40 23 0.0 1.0 0.00 0.00 0.00 96 1019.5
20200329044613 40 23 0.0 2.0 0.00 0.00 0.00 96 1019.6
20200329043058 40 23 0.0 1.0 0.00 0.00 0.00 96 1019.6
20200329041646 40 23 0.0 2.0 0.00 0.00 0.00 96 1020.0
20200329040032 40 15 0.0 3.0 0.00 0.00 0.00 96 1019.9
20200329034537 40 22 0.0 3.0 0.00 0.00 0.00 96 1020.3
20200329033110 40 25 0.0 2.0 0.00 0.00 0.00 96 1020.4
20200329031600 40 37 0.0 2.0 0.00 0.00 0.00 96 1020.7
20200329030115 40 26 0.0 3.0 0.00 0.00 0.00 96 1020.6
20200329024623 39 33 0.0 5.0 0.00 0.00 0.00 96 1020.6
20200329023042 39 9 0.0 3.0 0.00 0.00 0.00 96 1020.7
20200329021534 39 93 0.0 2.0 0.00 0.00 0.00 96 1020.4
20200329020138 39 120 0.0 1.0 0.00 0.00 0.00 96 1020.6
20200329014604 39 120 0.0 3.0 0.00 0.00 0.00 96 1020.9
20200329013103 39 101 0.0 2.0 0.00 0.00 0.00 96 1021.1
20200329011624 39 59 0.0 0.0 0.00 0.00 0.00 95 1021.2
20200329010030 39 59 0.0 0.0 0.00 0.00 0.00 95 1021.0
20200329004551 39 59 0.0 0.0 0.00 0.00 0.00 95 1021.0
20200329003035 39 59 0.0 1.0 0.00 0.00 0.00 95 1021.0
20200329001627 39 59 0.0 0.0 0.00 0.00 0.00 95 1021.1
20200329000049 39 57 0.0 1.0 0.00 0.00 0.00 95 1020.8
20200328234527 39 58 0.0 2.0 0.00 0.00 0.00 95 1021.0
20200328233047 39 59 0.0 1.0 0.00 0.00 0.00 95 1020.5
20200328231528 39 59 0.0 1.0 0.00 0.00 0.00 94 1020.7
20200328230137 39 59 0.0 2.0 0.00 0.00 0.00 94 1020.8
20200328224533 39 89 0.0 2.0 0.00 0.00 0.00 94 1020.5
20200328223032 39 101 0.0 1.0 0.00 0.00 0.00 94 1020.3
20200328221549 39 85 0.0 2.0 0.00 0.00 0.00 93 1020.0
20200328220021 39 82 0.0 3.0 0.00 0.00 0.00 93 1020.4
20200328214611 39 101 0.0 2.0 0.00 0.00 0.00 93 1020.4
20200328213018 39 115 0.0 5.0 0.00 0.00 0.00 92 1020.1
20200328211517 40 119 0.0 2.0 0.00 0.00 0.00 92 1020.0
20200328210016 40 118 0.0 2.0 0.00 0.00 0.00 92 1020.0
20200328204517 40 145 0.0 2.0 0.00 0.00 0.00 91 1020.4
20200328203043 40 153 0.0 1.0 0.00 0.00 0.00 90 1020.4
20200328201522 40 153 0.0 8.0 0.00 0.00 0.00 89 1020.0
20200328200012 41 133 0.0 5.0 0.00 0.00 0.00 89 1020.0
20200328194522 41 171 0.0 5.0 0.00 0.00 0.00 87 1019.8
20200328193034 41 146 0.0 6.0 0.00 0.00 0.00 85 1020.5
20200328191542 42 130 0.0 9.0 0.00 0.00 0.00 82 1020.3
20200328190052 43 140 0.0 5.0 0.00 0.00 0.00 78 1021.0
20200328184509 43 102 0.0 9.0 0.00 0.00 0.00 74 1020.5
20200328183009 44 132 1.0 7.0 0.00 0.00 0.00 71 1020.1
20200328181516 45 123 1.0 8.0 0.00 0.00 0.00 68 1020.4
20200328180008 46 113 0.0 6.0 0.00 0.00 0.00 62 1021.0
20200328174506 46 130 0.0 7.0 0.00 0.00 0.00 55 1021.0
20200328173007 47 134 1.0 7.0 0.00 0.00 0.00 47 1021.1
20200328171505 47 104 1.0 6.0 0.00 0.00 0.00 44 1021.4
20200328170005 47 138 0.0 7.0 0.00 0.00 0.00 47 1021.2
20200328164513 47 126 1.0 7.0 0.00 0.00 0.00 47 1021.1
20200328163003 47 88 0.0 10.0 0.00 0.00 0.00 49 1021.0